Regional Weather Roundup
Issued by NWS Newport/Morehead, NC

Current Version | Previous Version | Graphics & Text | Print | Product List | Glossary On
Versions: 1 2 3 4 5 6 7 8 9 10 11 12 13 14 15 16 17 18 19 20 21 22 23 24 25 26 27 28 29 30 31 32 33 34 35 36 37 38 39 40 41 42 43 44 45 46 47 48 49 50
000 ASUS42 KMHX 222112 RWRMHX WEATHER ROUNDUP FOR EASTERN NORTH CAROLINA NATIONAL WEATHER SERVICE NEWPORT/MOREHEAD CITY NC 500 PM EDT SAT APR 22 2017 NOTE: "FAIR" INDICATES FEW OR NO CLOUDS BELOW 12,000 FEET WITH NO SIGNIFICANT WEATHER AND/OR OBSTRUCTIONS TO VISIBILITY NCZ015>017-031-032-045>047-102-103-222200- NORTH COAST CITY SKY/WX TMP DP RH WIND PRES REMARKS EDENTON MOSUNNY 86 62 43 SW9G17 29.79S ELIZABETH CITY CLOUDY 69 67 93 NE15 29.80R KITTY HAWK PTCLDY 84 63 49 S5 29.78S MANTEO MOSUNNY 79 68 70 S21G26 29.79F $$ NCZ045>047-081-094-103-104-222200- CENTRAL COAST CITY SKY/WX TMP DP RH WIND PRES REMARKS FRISCO SUNNY 75 65 70 SW15G22 29.85 HAZE $$ NCZ095-097-098-100-101-222200- SOUTHERN COAST CITY SKY/WX TMP DP RH WIND PRES REMARKS BEAUFORT SUNNY 76 69 79 SW21G26 29.85F CEDAR ISLAND NOT AVBL JACKSONVILLE MOSUNNY 83 67 58 S12G22 29.82F PINEY ISLAND CLEAR N/A N/A N/A SW20G28 29.83F WILMINGTON SUNNY 83 66 56 S14G21 29.84S $$ NCZ011>013-027>030-043-044-078>080-089-090>093-098-222200- COASTAL PLAIN CITY SKY/WX TMP DP RH WIND PRES REMARKS AHOSKIE N/A 77 63 61 N8 29.78R CLINTON SUNNY 86 60 40 SW12G21 29.81S ELIZABETHTOWN SUNNY 88 57 35 SW13G18 29.82S GOLDSBORO MOSUNNY 88 56 33 SW17G25 29.77F GREENVILLE MOSUNNY 88 59 37 SW12G20 29.80F HAVELOCK SUNNY 81 66 60 S17G23 29.84F KENANSVILLE MOSUNNY 88 59 37 SW7G20 29.80F KINSTON MOSUNNY 88 55 33 SW10G21 29.79F NEW BERN SUNNY 85 64 49 S16G23 29.81F RICHLANDS MOSUNNY 86 59 39 S10 29.81F ROCKY MOUNT MOSUNNY 85 58 39 SW15G23 29.77F WASHINGTON MOSUNNY 87 60 40 SW15 29.78F WHITEVILLE SUNNY 87 58 37 SW9G17 29.83S $$ AMZ130-135-150-152-154-156-158-170-250-252-270-ANZ085-086-088-633-658-670-222200- MARINE OBSERVATIONS STATION/POSITION TIME TEMP WIND PRES WAVE SWELL AIR SEA DIR/SP/G HT/PER HT/PER (UTC) (F) (DEG/KT/KT) (MB) (FT/S) (FT/S) CHESAPEAKE LIGHT NOT AVBL 64 E VA BEACH 2050 62 59 40/ 6/ 8 1010.7 4/11 3/11 DUCK 2048 67 55 340/ 14/ 16 1008.5 2 E DUCK 2100 59 N/A 3/13 2/13 OREGON INLET 2042 74 76 190/ 21/ 24 1009.4 13E OREGON INLT 2048 64 N/A 5/13 5/13 HATTERAS CG 2048 73 70 210/ 14/ 19 1010.6 DIAMOND BUOY 2050 76 75 220/ 19/ 21 1010.9 5/ 5 2/11 CAPE LOOKOUT 2100 74 210/ 14/ 19 1010.8 BEAUFORT LAB 2048 73 67 210/ 13/ 18 1010.0 30 SE NEW RVR IN 2008 71 230/ 17/ 21 1011.8 30 SE NEW RVR IN 2043 71 N/A 5/ 6 2/11 27 SE WRIGHTSVLE 2008 72 71 210/ 16/ 21 1011.8 5 SE WRIGHTSVLE 2008 71 69 200/ 17/ 23 1010.7 225 S CAPE HAT 2050 73 74 190/ 10/ 14 1015.8 4/13 3/13 41 SE CHARLESTON 2050 74 74 210/ 16/ 17 1012.5 3/ 5 2/10 $$

USA.gov is the U.S. government's official web portal to all federal, state and local government web resources and services.